This is the latest recevied weather packets stored in our database for station/object MB7UKB-10. If no packets are shown the sender has not sent any weather packets the latest 10 day(s).
| Time | Temp. | Humidity | Pressure | Rain* | Wind** | Luminosity | Snow |
|---|---|---|---|---|---|---|---|
| 1777695144 | 9.44° C | 95% | 1018.7 hPa | 0 mm | - | - | - |
| 1777693344 | 8.89° C | 95% | 1018.8 hPa | 0 mm | - | - | - |
| 1777691544 | 8.89° C | 93% | 1018.9 hPa | 0 mm | - | - | - |
| 1777689744 | 9.44° C | 92% | 1018.8 hPa | 0 mm | - | - | - |
| 1777687944 | 10° C | 91% | 1018.9 hPa | 0 mm | - | - | - |
| 1777686144 | 10.56° C | 89% | 1018.8 hPa | 0 mm | - | - | - |
| 1777684343 | 10.56° C | 89% | 1019.3 hPa | 0 mm | - | - | - |
| 1777682544 | 10.56° C | 87% | 1019.5 hPa | 0 mm | - | - | - |
| 1777680744 | 11.11° C | 86% | 1019.9 hPa | 0 mm | - | - | - |
| 1777678943 | 11.11° C | 85% | 1020 hPa | 0 mm | - | - | - |
| 1777677143 | 11.67° C | 82% | 1020 hPa | 0 mm | - | - | - |
| 1777675344 | 12.22° C | 79% | 1020 hPa | 0 mm | - | - | - |
| 1777673543 | 12.22° C | 76% | 1019.7 hPa | 0 mm | - | - | - |
| 1777671743 | 13.33° C | 73% | 1019.8 hPa | 0 mm | - | - | - |
| 1777669945 | 14.44° C | 71% | 1019.9 hPa | 0 mm | - | - | - |
| 1777668144 | 15° C | 70% | 1019.7 hPa | 0 mm | - | - | - |
| 1777666345 | 16.11° C | 67% | 1019.4 hPa | 0 mm | - | - | - |
| 1777664545 | 16.67° C | 63% | 1019.3 hPa | 0 mm | - | - | - |
| 1777662744 | 17.22° C | 61% | 1019.1 hPa | 0 mm | - | - | - |
| 1777660944 | 18.33° C | 61% | 1019.1 hPa | 0 mm | - | - | - |
| 1777657344 | 19.44° C | 58% | 1018.8 hPa | 0 mm | - | - | - |
| 1777655544 | 20.56° C | 57% | 1018.8 hPa | 0 mm | - | - | - |
| 1777653744 | 21.67° C | 55% | 1019 hPa | 0 mm | - | - | - |
| 1777651943 | 21.11° C | 58% | 1019 hPa | 0 mm | - | - | - |
| 1777650143 | 21.67° C | 55% | 1018.9 hPa | 0 mm | - | - | - |
* Rain latest hour (hover to see other rain measurements)
** Current wind speed in m/s (hover to see current wind gust speed)